Louisville, KY

4:38 AM EDT on June 26, 2017 (GMT -0400)
Louisville International-Standiford

Weather History for KSDF - July, 2013

Change the Weather History Date:

Tuesday, July 9, 2013

  Actual Average Record
Temperature  
Mean Temperature 84 °F 79 °F  
Max Temperature 91 °F 89 °F 103 °F (1988)
Min Temperature 77 °F 70 °F 52 °F (1961)
Degree Days  
Heating Degree Days 0 0  
Month to date heating degree days 0 0  
Since 1 June heating degree days 0 5  
Since 1 July heating degree days 0 0  
Cooling Degree Days 19 14  
Month to date cooling degree days 96 126  
Year to date cooling degree days 659 624  
Since 1 June cooling degree days 431 450  
Growing Degree Days 34 (Base 50)    
Moisture  
Dew Point 71 °F    
Average Humidity 69    
Maximum Humidity 82    
Minimum Humidity 56    
Precipitation  
Precipitation T in 0.14 in 1.70 in (1933)
Month to date precipitation 2.47 1.17  
Year to date precipitation 25.82 24.83  
Snow  
Snow 0.00 in 0.00 in - ()
Month to date snowfall 0.0 0.0  
Since 1 June snowfall 0.0 0.0  
Since 1 July snowfall 0.0 0.0  
Snow Depth 0.00 in    
Sea Level Pressure  
Sea Level Pressure 30.05 in    
Wind  
Wind Speed 8 mph (SW)    
Max Wind Speed 17 mph    
Max Gust Speed 24 mph    
Visibility 10 miles    
Events      
T = Trace of Precipitation, MM = Missing Value Source: NWS Daily Summary

Daily Weather History Graph

Daily Weather History Graph

Search for Another Location

Airport or City:

Trip Planner

Search our weather history database for the weather conditions in past years. The results will help you decide how hot, cold, wet, or windy it might be!

Date:

Astronomy

Jul. 09, 2013 Rise Set
Actual Time 6:28 AM EDT 9:08 PM EDT
Civil Twilight 5:57 AM EDT 9:39 PM EDT
Nautical Twilight 5:18 AM EDT 10:17 PM EDT
Astronomical Twilight 4:34 AM EDT 11:01 PM EDT
Moon 7:49 AM EDT (7/9) 9:47 PM EDT (7/9)
Length of Visible Light 15h 42m
Length of Day
14h 40m
New Moon, 2% of the Moon is Illuminated
Jul 9
New Moon
Jul 15
First Quarter
Jul 22
Full
Jul 29
Last Quarter
Aug 6
New

Hourly Weather History & Observations

Time (EDT) Temp. Heat Index Dew Point Humidity Pressure Visibility Wind Dir Wind Speed Gust Speed Precip Events Conditions
12:56 AM 80.1 °F 83.2 °F 70.0 °F 71% 30.10 in 10.0 mi SSW 5.8 mph - N/A   Mostly Cloudy
1:56 AM 79.0 °F - 70.0 °F 74% 30.09 in 10.0 mi South 5.8 mph - N/A   Overcast
2:56 AM 78.1 °F - 70.0 °F 76% 30.08 in 10.0 mi SW 3.5 mph - N/A   Overcast
3:56 AM 79.0 °F - 70.0 °F 74% 30.08 in 10.0 mi WSW 3.5 mph - N/A   Overcast
4:56 AM 79.0 °F - 69.1 °F 72% 30.08 in 10.0 mi SSW 4.6 mph - N/A   Overcast
5:56 AM 77.0 °F - 71.1 °F 82% 30.08 in 10.0 mi SSE 5.8 mph - N/A   Overcast
6:56 AM 77.0 °F - 71.1 °F 82% 30.10 in 10.0 mi Calm Calm - 0.00 in   Overcast
7:56 AM 78.1 °F - 72.0 °F 81% 30.09 in 10.0 mi SE 4.6 mph - N/A   Overcast
8:56 AM 80.1 °F 83.2 °F 70.0 °F 71% 30.09 in 10.0 mi SSW 4.6 mph - N/A   Mostly Cloudy
9:56 AM 84.9 °F 90.7 °F 72.0 °F 65% 30.09 in 10.0 mi WSW 6.9 mph - N/A   Scattered Clouds
10:56 AM 86.0 °F 92.2 °F 72.0 °F 63% 30.09 in 10.0 mi West 16.1 mph - N/A   Scattered Clouds
11:56 AM 88.0 °F 94.7 °F 72.0 °F 59% 30.09 in 10.0 mi WSW 11.5 mph 19.6 mph N/A   Scattered Clouds
12:56 PM 89.1 °F 96.0 °F 72.0 °F 57% 30.08 in 10.0 mi WSW 12.7 mph - N/A   Mostly Cloudy
1:56 PM 90.0 °F 96.9 °F 72.0 °F 55% 30.07 in 10.0 mi SW 15.0 mph - N/A   Mostly Cloudy
2:56 PM 90.0 °F 96.9 °F 72.0 °F 55% 30.06 in 10.0 mi WSW 13.8 mph 19.6 mph N/A   Mostly Cloudy
3:56 PM 90.0 °F 96.9 °F 72.0 °F 55% 30.04 in 10.0 mi WSW 10.4 mph - N/A   Mostly Cloudy
4:56 PM 90.0 °F 96.4 °F 71.1 °F 54% 30.01 in 10.0 mi SSW 10.4 mph - N/A   Scattered Clouds
5:56 PM 90.0 °F 96.9 °F 72.0 °F 55% 30.01 in 10.0 mi SSW 9.2 mph - N/A   Mostly Cloudy
6:56 PM 89.1 °F 96.0 °F 72.0 °F 57% 30.00 in 10.0 mi SW 6.9 mph - N/A   Mostly Cloudy
7:56 PM 89.1 °F 95.0 °F 71.1 °F 55% 29.99 in 10.0 mi WSW 8.1 mph - N/A   Mostly Cloudy
8:56 PM 87.1 °F 92.8 °F 71.1 °F 59% 29.99 in 10.0 mi SSW 6.9 mph - N/A   Mostly Cloudy
9:56 PM 84.9 °F 90.7 °F 72.0 °F 65% 30.00 in 10.0 mi South 6.9 mph - N/A   Scattered Clouds
10:56 PM 84.0 °F 89.6 °F 72.0 °F 67% 30.01 in 10.0 mi South 6.9 mph - N/A   Scattered Clouds
11:56 PM 82.9 °F 88.0 °F 72.0 °F 69% 30.00 in 10.0 mi SSW 4.6 mph - N/A   Mostly Cloudy